GW0410 Weather Reports


time (UTC)temp
C
wind
direction
speed
KPH
gust
KPH
rain 1hr
cm
rain 24hr
cm
rain mn
cm
humidity
%
barometer
mb
20260905005047 20 0.0 0.0 0.00 0.00 0.00 68 1013.9
20260905004050 20 0.0 0.0 0.00 0.00 0.00 68 1013.6
20260905003036 20 0.0 0.0 0.00 0.00 0.00 68 1013.6
20260905002046 21 0.0 0.0 0.00 0.00 0.00 67 1013.6
20260905001047 21 0.0 0.0 0.00 0.00 0.00 65 1013.3
20260905000050 21 242 0.0 3.2 0.00 0.00 0.00 64 1012.9
20260904235059 21 312 0.0 4.8 0.00 0.00 0.00 65 1013.0
20260904234025 21 292 0.0 0.0 0.00 0.00 0.00 66 1013.3
20260904233103 21 280 0.0 3.2 0.00 0.00 0.00 65 1012.9
20260904232024 21 285 1.6 3.2 0.00 0.00 0.00 66 1012.9
20260904231022 20 272 0.0 1.6 0.00 0.00 0.00 68 1012.9
20260904230021 19 0.0 0.0 0.00 0.00 0.00 71 1012.9
20260904225025 18 0.0 0.0 0.00 0.00 0.00 75 1012.8
20260904224025 18 0.0 0.0 0.00 0.00 0.00 75 1012.8
20260904223021 19 0.0 0.0 0.00 0.00 0.00 74 1012.8
20260904222025 19 0.0 0.0 0.00 0.00 0.00 73 1012.8
20260904221034 20 0.0 0.0 0.00 0.00 0.00 71 1012.8
20260904215024 20 0.0 0.0 0.00 0.00 0.00 70 1012.8
20260904214102 20 0.0 0.0 0.00 0.00 0.00 70 1012.8
20260904213051 21 0.0 0.0 0.00 0.00 0.00 69 1012.9
20260904212019 21 0.0 0.0 0.00 0.00 0.00 67 1013.0
20260904211020 21 315 0.0 0.0 0.00 0.00 0.00 66 1012.9
20260904210054 20 0.0 0.0 0.00 0.00 0.00 71 1012.9
20260904205023 20 0.0 0.0 0.00 0.00 0.00 73 1012.8
20260904204026 20 0.0 0.0 0.00 0.00 0.00 71 1012.8
20260904203024 20 0.0 0.0 0.00 0.00 0.00 70 1013.1
20260904202022 20 0.0 0.0 0.00 0.00 0.00 70 1013.1
20260904201051 21 0.0 0.0 0.00 0.00 0.00 69 1013.1
20260904200035 21 0.0 0.0 0.00 0.00 0.00 67 1013.4
20260904195045 21 0.0 0.0 0.00 0.00 0.00 65 1013.5
20260904194045 22 0.0 0.0 0.00 0.00 0.00 64 1013.5
20260904193034 21 275 0.0 0.0 0.00 0.00 0.00 64 1013.4
20260904192048 21 266 0.0 0.0 0.00 0.00 0.00 65 1013.3
20260904191034 21 237 0.0 0.0 0.00 0.00 0.00 65 1012.9
20260904190041 22 263 0.0 1.6 0.00 0.00 0.00 64 1013.3
20260904185049 22 279 0.0 0.0 0.00 0.00 0.00 63 1013.3
20260904184037 23 269 0.0 0.0 0.00 0.00 0.00 60 1013.3
20260904183035 23 264 0.0 1.6 0.00 0.00 0.00 59 1012.6
20260904182048 23 260 1.6 4.8 0.00 0.00 0.00 59 1012.6
20260904181020 25 256 0.0 4.8 0.00 0.00 0.00 57 1012.6
20260904180029 25 280 1.6 4.8 0.00 0.00 0.00 55 1012.3
20260904175057 26 290 0.0 1.6 0.00 0.00 0.00 53 1012.3
20260904174109 26 279 3.2 6.4 0.00 0.00 0.00 52 1012.3
20260904173037 26 274 3.2 6.4 0.00 0.00 0.00 51 1012.3
20260904172024 27 278 3.2 6.4 0.00 0.00 0.00 51 1012.3
20260904171027 27 275 4.8 9.7 0.00 0.00 0.00 50 1012.3
20260904170020 27 282 4.8 8.0 0.00 0.00 0.00 50 1012.3
20260904165050 27 261 4.8 9.7 0.00 0.00 0.00 49 1012.3
20260904164029 27 266 4.8 9.7 0.00 0.00 0.00 49 1012.3
20260904163048 27 282 3.2 6.4 0.00 0.00 0.00 49 1012.4
20260904162025 27 273 3.2 8.0 0.00 0.00 0.00 49 1012.4
20260904161052 28 256 4.8 8.0 0.00 0.00 0.00 49 1012.7
20260904160044 28 275 4.8 8.0 0.00 0.00 0.00 48 1013.4
20260904155029 28 268 4.8 8.0 0.00 0.00 0.00 48 1013.4
20260904154024 28 284 4.8 8.0 0.00 0.00 0.00 47 1013.4
20260904153026 28 269 4.8 9.7 0.00 0.00 0.00 46 1013.8
20260904152035 30 279 3.2 6.4 0.00 0.00 0.00 45 1013.9
20260904151037 30 286 4.8 8.0 0.00 0.00 0.00 45 1014.2
20260904150029 30 297 4.8 8.0 0.00 0.00 0.00 44 1014.3
20260904145036 30 266 4.8 8.0 0.00 0.00 0.00 44 1014.3
20260904144022 30 248 4.8 8.0 0.00 0.00 0.00 46 1014.6
20260904143035 30 280 4.8 6.4 0.00 0.00 0.00 46 1014.6
20260904142030 30 299 4.8 8.0 0.00 0.00 0.00 46 1014.6
20260904141026 29 259 3.2 6.4 0.00 0.00 0.00 48 1014.6
20260904140038 29 274 3.2 11.3 0.00 0.00 0.00 47 1015.3
20260904135035 29 266 0.0 1.6 0.00 0.00 0.00 49 1015.2
20260904134040 28 264 1.6 4.8 0.00 0.00 0.00 50 1015.2
20260904133038 28 275 3.2 8.0 0.00 0.00 0.00 49 1015.6
20260904132024 27 295 1.6 8.0 0.00 0.00 0.00 51 1015.5
20260904131032 27 267 3.2 8.0 0.00 0.00 0.00 52 1015.2
20260904130029 27 272 3.2 8.0 0.00 0.00 0.00 52 1015.5
20260904125028 27 262 3.2 6.4 0.00 0.00 0.00 52 1015.5
20260904124037 27 264 4.8 11.3 0.00 0.00 0.00 52 1015.8
20260904123044 27 251 3.2 8.0 0.00 0.00 0.00 52 1016.2
20260904122031 27 287 4.8 9.7 0.00 0.00 0.00 53 1016.2
20260904121036 27 251 1.6 3.2 0.00 0.00 0.00 54 1016.5
20260904120035 27 279 1.6 6.4 0.00 0.00 0.00 54 1016.8
20260904115051 26 267 1.6 4.8 0.00 0.00 0.00 54 1016.8
20260904114025 26 291 3.2 6.4 0.00 0.00 0.00 54 1016.8
20260904113024 27 287 3.2 6.4 0.00 0.00 0.00 54 1016.8
20260904112046 27 283 3.2 8.0 0.00 0.00 0.00 55 1016.9
20260904111032 27 314 1.6 4.8 0.00 0.00 0.00 56 1016.9
20260904110030 27 302 1.6 6.4 0.00 0.00 0.00 54 1017.2
20260904105033 26 282 1.6 8.0 0.00 0.00 0.00 55 1017.2
20260904104054 27 272 3.2 8.0 0.00 0.00 0.00 55 1017.3
20260904103051 27 293 1.6 6.4 0.00 0.00 0.00 56 1017.9
20260904102040 26 259 1.6 4.8 0.00 0.00 0.00 57 1017.9
20260904101036 26 277 1.6 6.4 0.00 0.00 0.00 59 1017.9
20260904100021 26 249 1.6 4.8 0.00 0.00 0.00 60 1018.2
20260904095116 25 295 0.0 3.2 0.00 0.00 0.00 61 1018.1
20260904094039 25 282 1.6 8.0 0.00 0.00 0.00 61 1018.1
20260904093044 25 265 1.6 6.4 0.00 0.00 0.00 61 1018.4
20260904092053 25 278 3.2 6.4 0.00 0.00 0.00 61 1018.4
20260904091032 26 278 1.6 6.4 0.00 0.00 0.00 60 1018.7
20260904090027 26 299 0.0 1.6 0.00 0.00 0.00 59 1019.1
20260904085027 27 262 1.6 6.4 0.00 0.00 0.00 59 1019.2
20260904084131 26 237 0.0 1.6 0.00 0.00 0.00 60 1019.1
20260904083024 25 272 1.6 6.4 0.00 0.00 0.00 61 1019.1
20260904082057 23 279 0.0 0.0 0.00 0.00 0.00 66 1019.0
20260904081024 23 249 0.0 0.0 0.00 0.00 0.00 67 1019.4
20260904080029 23 275 1.6 4.8 0.00 0.00 0.00 67 1019.4
20260904075057 23 261 0.0 1.6 0.00 0.00 0.00 67 1019.4
20260904074029 23 229 0.0 3.2 0.00 0.00 0.00 66 1019.4
20260904073038 22 249 1.6 6.4 0.00 0.00 0.00 67 1019.4
20260904072032 22 248 0.0 4.8 0.00 0.00 0.00 71 1019.3
20260904071042 20 274 0.0 4.8 0.00 0.00 0.00 73 1019.2
20260904070025 19 302 0.0 1.6 0.00 0.00 0.00 77 1019.1
20260904065023 18 256 0.0 1.6 0.00 0.00 0.00 78 1019.2
20260904064037 18 264 1.6 4.8 0.00 0.00 0.00 78 1019.5
20260904063026 18 272 1.6 4.8 0.00 0.00 0.00 80 1019.1
20260904062057 17 0.0 0.0 0.00 0.00 0.00 83 1019.1
20260904061138 16 259 0.0 1.6 0.00 0.00 0.00 85 1019.0
20260904060109 16 252 0.0 1.6 0.00 0.00 0.00 87 1019.0
20260904055021 16 0.0 0.0 0.00 0.00 0.00 89 1019.0
20260904054018 16 0.0 0.0 0.00 0.00 0.00 89 1019.0
20260904053027 15 0.0 0.0 0.00 0.00 0.00 89 1019.0
20260904052026 15 0.0 0.0 0.00 0.00 0.00 88 1019.1
20260904051046 15 0.0 0.0 0.00 0.00 0.00 88 1019.1
20260904050040 15 0.0 0.0 0.00 0.00 0.00 88 1018.8
20260904045022 15 0.0 0.0 0.00 0.00 0.00 88 1018.8
20260904044030 15 0.0 0.0 0.00 0.00 0.00 88 1019.1
20260904043054 15 0.0 0.0 0.00 0.00 0.00 87 1019.1
20260904042022 15 0.0 0.0 0.00 0.00 0.00 87 1019.2
20260904041026 15 0.0 0.0 0.00 0.00 0.00 86 1019.2
20260904040042 15 0.0 0.0 0.00 0.00 0.00 86 1019.2
20260904035034 15 0.0 0.0 0.00 0.00 0.00 86 1019.3
20260904034033 15 0.0 0.0 0.00 0.00 0.00 85 1019.3
20260904033046 15 0.0 0.0 0.00 0.00 0.00 85 1019.3
20260904032024 15 0.0 0.0 0.00 0.00 0.00 84 1019.2
20260904031049 15 0.0 0.0 0.00 0.00 0.00 83 1019.2
20260904030038 16 0.0 0.0 0.00 0.00 0.00 82 1019.3
20260904025027 16 0.0 0.0 0.00 0.00 0.00 82 1019.3
20260904024031 16 0.0 0.0 0.00 0.00 0.00 81 1019.3
20260904023036 16 0.0 0.0 0.00 0.00 0.00 80 1019.3
20260904022030 16 0.0 0.0 0.00 0.00 0.00 79 1019.3
20260904021025 16 0.0 0.0 0.00 0.00 0.00 79 1019.0
20260904020034 17 0.0 0.0 0.00 0.00 0.00 78 1019.0
20260904015028 17 259 0.0 0.0 0.00 0.00 0.00 78 1019.0
20260904014034 16 0.0 0.0 0.00 0.00 0.00 78 1019.0
20260904013021 16 0.0 0.0 0.00 0.00 0.00 79 1019.7
20260904012059 17 0.0 0.0 0.00 0.00 0.00 79 1019.6
20260904011026 17 272 0.0 0.0 0.00 0.00 0.00 79 1019.3
20260904010032 17 0.0 0.0 0.00 0.00 0.00 79 1019.6